Location: ???????
(54.9996°N, 37.9529°E)
Time: 03:03:00
(UTC+00:00)

ARIANE 6 FM1 Upper Stage - Visible Passes

Search period start: 19 January 2026 00:00
Search period end: 29 January 2026 00:00
Orbit: 522 x 610 km, 62.0° (Epoch: 18 January)

Date Brightness Start Highest point End Pass type
(mag) Time Alt. Az. Time Alt. Az. Time Alt. Az.
22 Jan 4.6 16:01:18 10° S 16:02:36 16° SSE 16:02:36 16° SSE visible
23 Jan 4.0 16:00:52 10° S 16:03:24 24° SSE 16:03:24 24° SSE visible
23 Jan 5.4 17:38:56 10° WSW 17:39:27 13° WSW 17:39:27 13° WSW visible
24 Jan 3.4 16:00:37 10° SSW 16:04:06 34° SE 16:04:06 34° SE visible
24 Jan 5.3 17:39:12 10° WSW 17:40:09 16° WSW 17:40:09 16° WSW visible
25 Jan 2.9 16:00:30 10° SSW 16:04:22 45° SE 16:04:44 43° ESE visible
25 Jan 5.2 17:39:31 10° WSW 17:40:46 19° W 17:40:46 19° W visible
26 Jan 2.6 16:00:30 10° SW 16:04:29 60° SE 16:05:16 48° E visible
26 Jan 5.1 17:39:50 10° W 17:41:18 20° W 17:41:18 20° W visible
27 Jan 2.4 16:00:34 10° SW 16:04:37 78° SE 16:05:45 45° ENE visible
27 Jan 5.1 17:40:11 10° W 17:41:46 21° WNW 17:41:46 21° WNW visible
28 Jan 2.5 16:00:43 10° SW 16:04:46 83° NW 16:06:10 39° NE visible
28 Jan 5.0 17:40:33 10° W 17:42:11 21° WNW 17:42:11 21° WNW visible
